Zurück zum Katalog

FENGYUN 1C DEB

AktivPO
NORAD 30191·DEBRIS·🇨🇳 China

Gestartet May 10, 1999 von Taiyuan Satellite Launch Center

Loading…

Nächste Überflüge (nächste 24 Stunden)

TLE

AktuellSource: Space-Track

Epoche: Sep 13, 2026, 06:26 UTC

1 30191U 99025UY  26256.26805749  .00006000  00000-0  71648-3 0  9996
2 30191  98.7638 357.4509 0092031 113.6017 312.7610 14.81634835 43363

Verfolge FENGYUN 1C DEB in Echtzeit mit AllMySat

Download on the App Store